Showing default

LEMUR 2 ROCINANTE, 59147

Orbit data source: Space-Track

LEMUR 2 ROCINANTE, 59147 is an American payload satellite in SSO that was launched on Mon, 04 Mar 2024 UTC via an FALCON 9 launch vehicle from the Air Force Western Test Range (AFWTR). Payload-class satellites include a variety of spacecraft equipped with specific instruments for various scientific and technological missions. These include communications satellites like Starlink; space stations such as the ISS; scientific satellites like the Hubble; Earth observation satellites from companies like Planet Labs, Umbra, and HawkEye 360; GPS; miniature CubeSats for education and research; and military/defense satellites.

Loading next visibility...
Identifier
59147, 2024-043BB
Orbit
SSO
Country
Flag of USUS
Related business
Manufacturer
Spire/Glasgow
Mission
Operational Commercial Communications
Bus & Motor
CUBESAT 16U, Unknown motor
Mass
22 kg wet, 22 kg dry
Launch date (UTC)
2024-03-04 (2 years ago)
Launch vehicle
FALCON 9
Launch site
Air Force Western Test Range (AFWTR)
Object type
Payload
Rocket body
Debris
Shape & HBR
Box + 4 Pan, 1.4 m
Radar Cross Section
0.326 m², Medium (>0.1 m² and < 1m²)

Expand to show TLE details & history
Last TLE update: 10 hours ago

TLE from 10 hours ago
0 LEMUR 2 ROCINANTE
1 59147U 24043BB  25289.13870830  .00081569  00000-0  13185-2 0  9994
2 59147  97.5158  65.4792 0007675 327.1574  32.9200 15.52540989 90250
Epoch: 2025-10-16T03:19Z
TLE epoch observation values (Epoch: 2025-10-16T03:19:44.397Z)
Latitude
-0.00005°
Longitude
-9.35851°
Altitude
408.069 km
Speed
7.668 km/s
True Right ascension
04h 21m 55s
True Declination
0° 00' 00"
Sunlit
Object was in full shadow at epoch
Visualization orbit readout
Latitude
Unknown
Longitude
Unknown
Altitude
Unknown
Speed
Unknown
Apparent Right ascension
Unknown
Apparent Declination
Unknown
Sunlit
N/A
Visualization observer readout
Local Sidereal Time
08:29:04
Azimuth
Unknown
Elevation
Unknown
Doppler factor
Unknown
Orbital elements
Apogee altitude
411.444 km
Perigee altitude
401.03 km
Semi-major axis
6,784.374 km
Eccentricity
0.00077
Inclination
97.5158°
RAAN
65.4792°
Arg. of periapsis
327.1574°
True anomaly
32.96784°
Mean anomaly
32.92°
Eccentric anomaly
32.94391°
Mean motion
3.88399 °/min
Orbital period
92.69 mins
BSTAR
0.0013185
Loading maneuver chart data...
Computing Atmospheric mass density...
Loading historical data...
Loading historical data...
Loading historical data...
Loading historical data...
Loading historical data...
Loading historical data...
Loading historical data...

Documentation

Showing up to 5 results
|